Simultaneous Nadir Overpasses (SNOs) Predictions

Prediction of SNOs between NOAA-19 and TERRA Satellite Orbit:

Table of predicted SNOs for the next 14.0 days since TLE Epoch: 12/3/2014
Index Date (NOAA-19) Time (NOAA-19) Lat,Lon (NOAA-19) SZA (NOAA-19 ) Date (TERRA) Time (TERRA) Lat,Lon (TERRA) SZA (TERRA ) Distance(km) Time Diff (sec)
1 12/03/2014 20:56:51 71.24,-131.78 93.38 12/03/2014 20:57:41 71.25,-131.85 93.38 2.62 50
2 12/03/2014 21:47:54 -71.11, 35.68 86.75 12/03/2014 21:47:11 -71.12, 35.59 86.74 3.62 43
3 12/06/2014 01:40:40 71.83, 156.25 94.23 12/06/2014 01:41:49 71.72, 157.86 94.16 57.58 69
4 12/06/2014 02:31:33 -71.18, -35.32 86.40 12/06/2014 02:31:27 -71.17, -35.41 86.42 3.19 6
5 12/06/2014 03:22:14 70.33, 133.38 92.80 12/06/2014 03:21:07 70.37, 131.00 92.76 89.06 67
6 12/08/2014 07:15:12 -71.26,-106.35 86.08 12/08/2014 07:15:42 -71.24,-106.36 86.10 2.16 30
7 12/08/2014 08:06:07 71.14, 61.13 93.81 12/08/2014 08:05:09 71.15, 61.13 93.81 0.32 58
8 12/10/2014 11:58:50 -71.30,-177.30 85.83 12/10/2014 11:59:57 -71.28,-177.36 85.85 3.12 67
9 12/10/2014 12:49:45 71.19, -9.83 94.07 12/10/2014 12:49:24 71.19, -9.87 94.06 1.70 21
10 12/12/2014 17:33:23 71.24, -80.80 94.29 12/12/2014 17:33:38 71.25, -80.83 94.30 1.47 15
11 12/12/2014 18:24:22 -70.94, 86.96 86.01 12/12/2014 18:23:09 -71.03, 86.44 85.94 21.05 73
12 12/14/2014 22:17:00 71.31,-151.79 94.48 12/14/2014 22:17:51 71.29,-151.84 94.47 2.81 51
13 12/14/2014 23:08:03 -71.16, 15.70
